K6CRS-15 Weather Reports


time (UTC)temp
C
wind
direction
speed
KPH
gust
KPH
rain 1hr
cm
rain 24hr
cm
rain mn
cm
humidity
%
barometer
mb
20260507064546 12 10 1.6 6.4 0.00 0.00 0.00 80 1017.0
20260507063046 12 0 0.0 1.6 0.00 0.00 0.00 81 1016.9
20260507061544 12 0 0.0 0.0 0.00 0.00 0.00 80 1016.9
20260507060044 13 0 0.0 0.0 0.00 0.00 0.00 78 1017.0
20260507054540 13 0 0.0 3.2 0.00 0.00 0.00 77 1017.1
20260507053115 13 339 1.6 4.8 0.00 0.00 0.00 77 1017.1
20260507051550 13 8 0.0 1.6 0.00 0.00 0.00 77 1017.0
20260507050046 13 356 0.0 1.6 0.00 0.00 0.00 77 1016.8
20260507044546 14 0 0.0 1.6 0.00 0.00 0.00 76 1016.9
20260507043045 14 0 0.0 0.0 0.00 0.00 0.00 76 1016.9
20260507041547 15 0 0.0 0.0 0.00 0.00 0.00 74 1016.9
20260507040046 15 0 0.0 0.0 0.00 0.00 0.00 73 1016.7
20260507034544 15 0 0.0 3.2 0.00 0.00 0.00 72 1016.6
20260507033049 16 252 1.6 3.2 0.00 0.00 0.00 72 1016.5
20260507031540 16 269 1.6 3.2 0.00 0.00 0.00 70 1016.3
20260507030047 16 257 1.6 4.8 0.00 0.00 0.00 69 1016.2
20260507024544 17 259 1.6 6.4 0.00 0.00 0.00 68 1016.0
20260507023044 17 272 3.2 9.7 0.00 0.00 0.00 66 1015.9
20260507021545 18 270 4.8 9.7 0.00 0.00 0.00 63 1015.8
20260507020049 18 262 6.4 12.9 0.00 0.00 0.00 63 1015.7
20260507014554 18 223 4.8 14.5 0.00 0.00 0.00 61 1015.7
20260507013053 19 217 6.4 17.7 0.00 0.00 0.00 61 1015.6
20260507011545 19 228 6.4 16.1 0.00 0.00 0.00 61 1015.6
20260507010044 20 218 8.0 17.7 0.00 0.00 0.00 60 1015.6
20260507004601 20 165 4.8 16.1 0.00 0.00 0.00 61 1015.7
20260507003048 20 206 8.0 16.1 0.00 0.00 0.00 59 1015.6
20260507001550 21 222 8.0 19.3 0.00 0.00 0.00 59 1015.6
20260507000046 21 266 4.8 17.7 0.00 0.00 0.00 59 1015.5
20260506234544 21 235 9.7 16.1 0.00 0.00 0.00 59 1015.4
20260506233056 21 232 6.4 22.5 0.00 0.00 0.00 57 1015.5
20260506231553 21 178 6.4 20.9 0.00 0.00 0.00 58 1015.6
20260506230049 21 229 6.4 20.9 0.00 0.00 0.00 55 1015.6
20260506224546 22 135 9.7 19.3 0.00 0.00 0.00 54 1015.7
20260506223044 21 241 9.7 22.5 0.00 0.00 0.00 56 1015.8
20260506221552 22 130 9.7 20.9 0.00 0.00 0.00 55 1016.0
20260506220052 22 174 11.3 22.5 0.00 0.00 0.00 55 1016.2
20260506214550 22 194 8.0 17.7 0.00 0.00 0.00 55 1016.5
20260506213050 21 266 9.7 22.5 0.00 0.00 0.00 56 1016.4
20260506211600 22 134 6.4 19.3 0.00 0.00 0.00 53 1016.5
20260506210045 22 155 8.0 17.7 0.00 0.00 0.00 53 1016.5
20260506204549 22 219 8.0 22.5 0.00 0.00 0.00 51 1016.5
20260506203043 22 139 6.4 19.3 0.00 0.00 0.00 51 1016.7
20260506201542 22 233 4.8 17.7 0.00 0.00 0.00 50 1016.9
20260506200055 22 231 9.7 22.5 0.00 0.00 0.00 49 1016.8
20260506194548 21 217 6.4 14.5 0.00 0.00 0.00 50 1017.1
20260506193043 21 169 6.4 12.9 0.00 0.00 0.00 51 1017.2
20260506191548 21 161 3.2 12.9 0.00 0.00 0.00 50 1017.3
20260506190043 21 219 4.8 14.5 0.00 0.00 0.00 51 1017.4
20260506184542 20 172 1.6 14.5 0.00 0.00 0.00 51 1017.5
20260506183052 20 226 3.2 12.9 0.00 0.00 0.00 51 1017.7
20260506181556 20 114 3.2 16.1 0.00 0.00 0.00 52 1017.8
20260506180104 19 141 8.0 17.7 0.00 0.00 0.00 53 1017.9
20260506174542 18 176 4.8 12.9 0.00 0.00 0.00 56 1017.8
20260506173056 18 0 4.8 14.5 0.00 0.00 0.00 54 1017.8
20260506171549 18 226 3.2 12.9 0.00 0.00 0.00 54 1017.7
20260506170050 18 201 6.4 11.3 0.00 0.00 0.00 55 1017.7
20260506164544 17 246 3.2 8.0 0.00 0.00 0.00 56 1017.8
20260506163045 17 115 1.6 6.4 0.00 0.00 0.00 58 1017.7
20260506161552 16 173 1.6 9.7 0.00 0.00 0.00 61 1017.6
20260506160042 16 132 0.0 6.4 0.00 0.00 0.00 61 1017.7
20260506154547 16 141 3.2 6.4 0.00 0.00 0.00 62 1017.4
20260506153046 16 108 1.6 4.8 0.00 0.00 0.00 64 1017.6
20260506151546 15 72 0.0 3.2 0.00 0.00 0.00 67 1017.6
20260506150045 14 91 1.6 3.2 0.00 0.00 0.00 70 1017.6
20260506144600 15 77 0.0 3.2 0.00 0.00 0.00 69 1017.6
20260506143042 14 0 0.0 1.6 0.00 0.00 0.00 70 1017.5
20260506141540 13 0 0.0 0.0 0.00 0.00 0.00 75 1017.5
20260506140047 12 0 0.0 0.0 0.00 0.00 0.00 78 1017.3
20260506134544 11 0 0.0 0.0 0.00 0.00 0.00 80 1017.3
20260506133046 9 0 0.0 0.0 0.00 0.00 0.00 84 1017.1
20260506131545 9 0 0.0 0.0 0.00 0.00 0.00 84 1017.1
20260506130043 10 347 0.0 6.4 0.00 0.00 0.00 81 1017.0
20260506124542 10 346 3.2 4.8 0.00 0.00 0.00 82 1016.8
20260506123048 10 8 1.6 4.8 0.00 0.00 0.00 81 1016.8
20260506121545 10 335 3.2 4.8 0.00 0.00 0.00 81 1016.7
20260506120045 10 13 1.6 3.2 0.00 0.00 0.00 80 1016.6
20260506114546 10 15 0.0 4.8 0.00 0.00 0.00 80 1016.6
20260506113044 10 350 1.6 6.4 0.00 0.00 0.00 80 1016.7
20260506111549 10 1 3.2 4.8 0.00 0.00 0.00 81 1016.5
20260506110051 10 356 3.2 4.8 0.00 0.00 0.00 82 1016.5
20260506104548 10 356 0.0 4.8 0.00 0.00 0.00 82 1016.5
20260506103051 10 353 0.0 4.8 0.00 0.00 0.00 82 1016.6
20260506101545 10 0 0.0 3.2 0.00 0.00 0.00 81 1016.5
20260506100043 10 0 0.0 1.6 0.00 0.00 0.00 81 1016.6
20260506094605 10 0 0.0 4.8 0.00 0.00 0.00 81 1016.8
20260506093045 10 345 1.6 3.2 0.00 0.00 0.00 82 1016.8
20260506091545 10 342 1.6 4.8 0.00 0.00 0.00 84 1017.0
20260506090045 10 336 0.0 1.6 0.00 0.00 0.00 86 1017.0
20260506084546 10 0 0.0 3.2 0.00 0.00 0.00 84 1017.1
20260506083043 10 0 0.0 1.6 0.00 0.00 0.00 85 1017.1
20260506081550 10 333 0.0 9.7 0.00 0.00 0.00 86 1017.2
20260506073050 10 345 1.6 4.8 0.00 0.00 0.00 88 1017.3
20260506071552 10 2 3.2 6.4 0.00 0.00 0.00 89 1017.3